Time,TemperatureF,DewpointF,PressureIn,WindDirection,WindDirectionDegrees,WindSpeedMPH,WindSpeedGustMPH,Humidity,HourlyPrecipIn,Conditions,Clouds,dailyrainin,SoftwareType,DateUTC
2013-07-28 00:10:00,56.0,52.0,29.88,WSW,249,0.0,1.0,86,0.00,,,0.03,weatherlink.com 1.10,2013-07-28 04:10:00,
2013-07-28 00:25:00,55.1,51.0,29.88,WSW,249,0.0,0.0,87,0.00,,,0.00,weatherlink.com 1.10,2013-07-28 04:25:00,
2013-07-28 00:41:00,54.3,51.0,29.89,WSW,249,0.0,0.0,87,0.00,,,0.00,weatherlink.com 1.10,2013-07-28 04:41:00,
2013-07-28 00:56:00,53.6,51.0,29.88,WSW,249,0.0,0.0,91,0.00,,,0.00,weatherlink.com 1.10,2013-07-28 04:56:00,
2013-07-28 01:11:00,53.0,51.0,29.88,WSW,249,0.0,0.0,91,0.00,,,0.00,weatherlink.com 1.10,2013-07-28 05:11:00,
2013-07-28 01:26:00,52.3,50.0,29.89,WSW,249,0.0,0.0,92,0.00,,,0.00,weatherlink.com 1.10,2013-07-28 05:26:00,
2013-07-28 01:41:00,52.5,51.0,29.89,WSW,249,0.0,0.0,94,0.00,,,0.00,weatherlink.com 1.10,2013-07-28 05:41:00,
2013-07-28 01:56:00,52.9,51.0,29.89,WSW,249,0.0,0.0,94,0.00,,,0.00,weatherlink.com 1.10,2013-07-28 05:56:00,
2013-07-28 02:11:00,53.3,52.0,29.88,WSW,249,0.0,0.0,94,0.00,,,0.00,weatherlink.com 1.10,2013-07-28 06:11:00,
2013-07-28 02:26:00,53.1,51.0,29.89,WSW,249,0.0,1.0,93,0.00,,,0.00,weatherlink.com 1.10,2013-07-28 06:26:00,
2013-07-28 02:41:00,52.8,51.0,29.89,WSW,249,0.0,1.0,93,0.00,,,0.00,weatherlink.com 1.10,2013-07-28 06:41:00,
2013-07-28 02:56:00,53.1,51.0,29.89,West,270,0.0,1.0,92,0.00,,,0.00,weatherlink.com 1.10,2013-07-28 06:56:00,
2013-07-28 03:11:00,53.1,51.0,29.89,SW,225,0.0,1.0,91,0.00,,,0.00,weatherlink.com 1.10,2013-07-28 07:11:00,
2013-07-28 03:26:00,52.4,50.0,29.89,SW,225,0.0,1.0,91,0.00,,,0.00,weatherlink.com 1.10,2013-07-28 07:26:00,
2013-07-28 03:41:00,51.6,49.0,29.89,SW,225,0.0,1.0,92,0.00,,,0.00,weatherlink.com 1.10,2013-07-28 07:41:00,
2013-07-28 04:11:00,51.0,49.0,29.89,West,271,1.0,1.0,93,0.00,,,0.00,weatherlink.com 1.10,2013-07-28 08:11:00,
2013-07-28 04:27:00,51.0,49.0,29.89,West,266,0.0,3.0,92,0.00,,,0.00,weatherlink.com 1.10,2013-07-28 08:27:00,
2013-07-28 04:41:00,51.0,49.0,29.88,WSW,255,0.0,1.0,91,0.00,,,0.00,weatherlink.com 1.10,2013-07-28 08:41:00,
2013-07-28 04:56:00,50.3,48.0,29.89,WSW,253,0.0,1.0,91,0.00,,,0.00,weatherlink.com 1.10,2013-07-28 08:56:00,
2013-07-28 05:11:00,49.5,47.0,29.88,WSW,252,0.0,0.0,92,0.00,,,0.00,weatherlink.com 1.10,2013-07-28 09:11:00,
2013-07-28 05:41:00,48.0,46.0,29.89,WSW,252,0.0,0.0,93,0.00,,,0.00,weatherlink.com 1.10,2013-07-28 09:41:00,
2013-07-28 05:56:00,47.3,46.0,29.90,WSW,252,0.0,0.0,94,0.00,,,0.00,weatherlink.com 1.10,2013-07-28 09:56:00,
2013-07-28 06:11:00,47.0,45.0,29.90,WSW,252,0.0,0.0,94,0.00,,,0.00,weatherlink.com 1.10,2013-07-28 10:11:00,
2013-07-28 06:26:00,47.0,46.0,29.91,West,264,0.0,1.0,95,0.00,,,0.00,weatherlink.com 1.10,2013-07-28 10:26:00,
2013-07-28 06:41:00,46.7,45.0,29.92,West,264,0.0,0.0,95,0.00,,,0.00,weatherlink.com 1.10,2013-07-28 10:41:00,
2013-07-28 06:56:00,46.9,46.0,29.92,West,264,0.0,0.0,96,0.00,,,0.00,weatherlink.com 1.10,2013-07-28 10:56:00,
2013-07-28 07:11:00,47.3,46.0,29.93,West,264,0.0,0.0,96,0.00,,,0.00,weatherlink.com 1.10,2013-07-28 11:11:00,
2013-07-28 07:26:00,48.3,47.0,29.93,West,264,0.0,0.0,96,0.00,,,0.00,weatherlink.com 1.10,2013-07-28 11:26:00,
2013-07-28 07:42:00,50.5,50.0,29.93,South,181,0.0,0.0,97,0.00,,,0.00,weatherlink.com 1.10,2013-07-28 11:42:00,
2013-07-28 07:57:00,55.8,53.0,29.94,SSW,193,1.0,2.0,90,0.00,,,0.00,weatherlink.com 1.10,2013-07-28 11:57:00,
2013-07-28 08:12:00,59.0,53.0,29.94,SSE,158,0.0,3.0,81,0.00,,,0.00,weatherlink.com 1.10,2013-07-28 12:12:00,
2013-07-28 08:27:00,61.4,53.0,29.94,SW,233,1.0,4.0,75,0.00,,,0.00,weatherlink.com 1.10,2013-07-28 12:27:00,
2013-07-28 08:42:00,61.8,53.0,29.94,West,275,5.0,7.0,73,0.00,,,0.00,weatherlink.com 1.10,2013-07-28 12:42:00,
2013-07-28 08:57:00,62.1,54.0,29.94,NNE,15,0.0,5.0,74,0.00,,,0.00,weatherlink.com 1.10,2013-07-28 12:57:00,
2013-07-28 09:12:00,63.9,54.0,29.94,SW,236,2.0,5.0,69,0.00,,,0.00,weatherlink.com 1.10,2013-07-28 13:12:00,
2013-07-28 09:27:00,63.8,53.0,29.94,NW,315,0.0,6.0,68,0.00,,,0.00,weatherlink.com 1.10,2013-07-28 13:27:00,
2013-07-28 09:42:00,64.6,52.0,29.94,ESE,123,2.0,6.0,64,0.00,,,0.00,weatherlink.com 1.10,2013-07-28 13:42:00,
2013-07-28 09:57:00,65.2,53.0,29.94,NNE,15,3.0,7.0,64,0.00,,,0.00,weatherlink.com 1.10,2013-07-28 13:57:00,
2013-07-28 10:12:00,67.1,53.0,29.93,West,276,2.0,5.0,61,0.00,,,0.00,weatherlink.com 1.10,2013-07-28 14:12:00,
2013-07-28 10:27:00,68.4,53.0,29.93,NNW,341,2.0,6.0,58,0.00,,,0.00,weatherlink.com 1.10,2013-07-28 14:27:00,
2013-07-28 10:42:00,69.0,53.0,29.93,NNE,15,1.0,9.0,57,0.00,,,0.00,weatherlink.com 1.10,2013-07-28 14:42:00,
2013-07-28 10:57:00,69.1,53.0,29.93,ENE,70,1.0,9.0,56,0.00,,,0.00,weatherlink.com 1.10,2013-07-28 14:57:00,
2013-07-28 11:12:00,71.2,54.0,29.93,SSE,158,2.0,7.0,54,0.00,,,0.00,weatherlink.com 1.10,2013-07-28 15:12:00,
2013-07-28 11:27:00,71.4,52.0,29.93,WNW,284,1.0,8.0,51,0.00,,,0.00,weatherlink.com 1.10,2013-07-28 15:27:00,
2013-07-28 11:42:00,72.7,53.0,29.93,West,276,2.0,5.0,50,0.00,,,0.00,weatherlink.com 1.10,2013-07-28 15:42:00,
2013-07-28 11:57:00,72.0,53.0,29.93,SSE,166,2.0,11.0,51,0.00,,,0.00,weatherlink.com 1.10,2013-07-28 15:57:00,
2013-07-28 12:12:00,70.3,51.0,29.93,SW,214,2.0,10.0,51,0.00,,,0.00,weatherlink.com 1.10,2013-07-28 16:12:00,
2013-07-28 12:27:00,72.5,53.0,29.92,NNW,333,4.0,9.0,50,0.00,,,0.00,weatherlink.com 1.10,2013-07-28 16:27:00,
2013-07-28 12:42:00,73.5,53.0,29.92,North,358,1.0,10.0,49,0.00,,,0.00,weatherlink.com 1.10,2013-07-28 16:42:00,
2013-07-28 12:57:00,72.4,53.0,29.92,South,177,2.0,10.0,50,0.00,,,0.00,weatherlink.com 1.10,2013-07-28 16:57:00,
2013-07-28 13:12:00,73.9,51.0,29.93,NW,319,3.0,11.0,44,0.00,,,0.00,weatherlink.com 1.10,2013-07-28 17:12:00,
2013-07-28 13:27:00,72.8,51.0,29.92,NNW,347,2.0,13.0,47,0.00,,,0.00,weatherlink.com 1.10,2013-07-28 17:27:00,
2013-07-28 13:42:00,71.5,52.0,29.92,East,100,4.0,9.0,51,0.00,,,0.00,weatherlink.com 1.10,2013-07-28 17:42:00,
2013-07-28 13:57:00,73.3,53.0,29.91,ENE,68,3.0,10.0,50,0.00,,,0.00,weatherlink.com 1.10,2013-07-28 17:57:00,
2013-07-28 14:12:00,73.9,53.0,29.92,West,267,3.0,16.0,48,0.00,,,0.00,weatherlink.com 1.10,2013-07-28 18:12:00,
2013-07-28 14:27:00,74.9,53.0,29.92,SE,132,5.0,13.0,47,0.00,,,0.00,weatherlink.com 1.10,2013-07-28 18:27:00,
2013-07-28 14:42:00,73.4,51.0,29.92,NW,310,3.0,10.0,45,0.00,,,0.00,weatherlink.com 1.10,2013-07-28 18:42:00,
2013-07-28 14:57:00,71.6,51.0,29.92,NNW,342,3.0,9.0,49,0.00,,,0.00,weatherlink.com 1.10,2013-07-28 18:57:00,
2013-07-28 15:12:00,71.0,51.0,29.92,NNE,22,8.0,12.0,50,0.00,,,0.00,weatherlink.com 1.10,2013-07-28 19:12:00,
2013-07-28 15:27:00,71.5,52.0,29.92,NW,322,5.0,11.0,51,0.00,,,0.00,weatherlink.com 1.10,2013-07-28 19:27:00,
2013-07-28 15:42:00,71.8,53.0,29.92,WNW,298,4.0,11.0,51,0.00,,,0.00,weatherlink.com 1.10,2013-07-28 19:42:00,
2013-07-28 15:57:00,72.5,52.0,29.92,North,356,8.0,11.0,49,0.00,,,0.00,weatherlink.com 1.10,2013-07-28 19:57:00,
2013-07-28 16:12:00,72.1,52.0,29.93,SW,232,1.0,12.0,50,0.00,,,0.00,weatherlink.com 1.10,2013-07-28 20:12:00,
2013-07-28 16:27:00,72.9,53.0,29.93,East,79,2.0,10.0,49,0.00,,,0.00,weatherlink.com 1.10,2013-07-28 20:27:00,
2013-07-28 16:42:00,71.9,53.0,29.93,SW,218,4.0,10.0,51,0.00,,,0.00,weatherlink.com 1.10,2013-07-28 20:42:00,
2013-07-28 16:57:00,71.2,53.0,29.93,WNW,283,1.0,10.0,52,0.00,,,0.00,weatherlink.com 1.10,2013-07-28 20:57:00,
2013-07-28 17:12:00,71.0,52.0,29.94,WSW,239,3.0,9.0,52,0.00,,,0.00,weatherlink.com 1.10,2013-07-28 21:12:00,
2013-07-28 17:27:00,72.9,53.0,29.94,NNW,345,5.0,11.0,50,0.00,,,0.00,weatherlink.com 1.10,2013-07-28 21:27:00,
2013-07-28 17:42:00,72.6,53.0,29.94,West,276,1.0,8.0,51,0.00,,,0.00,weatherlink.com 1.10,2013-07-28 21:42:00,
2013-07-28 17:57:00,71.0,52.0,29.94,West,272,2.0,10.0,52,0.00,,,0.00,weatherlink.com 1.10,2013-07-28 21:57:00,
2013-07-28 18:12:00,70.9,52.0,29.94,North,352,3.0,11.0,52,0.00,,,0.00,weatherlink.com 1.10,2013-07-28 22:12:00,
2013-07-28 18:27:00,70.5,52.0,29.95,NE,46,6.0,10.0,53,0.00,,,0.00,weatherlink.com 1.10,2013-07-28 22:27:00,
2013-07-28 18:42:00,70.1,53.0,29.95,WNW,300,5.0,7.0,55,0.00,,,0.00,weatherlink.com 1.10,2013-07-28 22:42:00,
2013-07-28 18:57:00,69.7,53.0,29.95,SW,236,4.0,10.0,55,0.00,,,0.00,weatherlink.com 1.10,2013-07-28 22:57:00,
2013-07-28 19:12:00,70.0,53.0,29.95,ENE,74,2.0,6.0,55,0.00,,,0.00,weatherlink.com 1.10,2013-07-28 23:12:00,
2013-07-28 19:28:00,69.0,53.0,29.96,WNW,288,4.0,6.0,57,0.00,,,0.00,weatherlink.com 1.10,2013-07-28 23:28:00,
2013-07-28 19:43:00,68.6,54.0,29.96,West,267,1.0,7.0,59,0.00,,,0.00,weatherlink.com 1.10,2013-07-28 23:43:00,
2013-07-28 19:58:00,68.5,53.0,29.96,West,273,3.0,7.0,59,0.00,,,0.00,weatherlink.com 1.10,2013-07-28 23:58:00,
2013-07-28 20:13:00,68.1,54.0,29.97,ESE,104,0.0,5.0,60,0.00,,,0.00,weatherlink.com 1.10,2013-07-29 00:13:00,
2013-07-28 20:28:00,67.3,54.0,29.97,WNW,295,1.0,3.0,62,0.00,,,0.00,weatherlink.com 1.10,2013-07-29 00:28:00,
2013-07-28 20:43:00,66.6,54.0,29.97,SW,231,1.0,3.0,64,0.00,,,0.00,weatherlink.com 1.10,2013-07-29 00:43:00,
2013-07-28 20:58:00,66.1,53.0,29.98,WSW,243,1.0,4.0,64,0.00,,,0.00,weatherlink.com 1.10,2013-07-29 00:58:00,
2013-07-28 21:13:00,65.1,54.0,29.98,WNW,284,0.0,2.0,67,0.00,,,0.00,weatherlink.com 1.10,2013-07-29 01:13:00,
2013-07-28 21:43:00,62.3,53.0,29.99,WNW,284,0.0,0.0,72,0.00,,,0.00,weatherlink.com 1.10,2013-07-29 01:43:00,
2013-07-28 21:58:00,60.8,53.0,30.00,WNW,283,0.0,0.0,76,0.00,,,0.00,weatherlink.com 1.10,2013-07-29 01:58:00,
2013-07-28 22:13:00,59.6,53.0,30.00,WNW,283,0.0,0.0,78,0.00,,,0.00,weatherlink.com 1.10,2013-07-29 02:13:00,
2013-07-28 22:28:00,58.5,52.0,30.00,WNW,282,0.0,0.0,80,0.00,,,0.00,weatherlink.com 1.10,2013-07-29 02:28:00,
2013-07-28 22:43:00,58.4,53.0,30.00,WNW,284,0.0,0.0,82,0.00,,,0.00,weatherlink.com 1.10,2013-07-29 02:43:00,
2013-07-28 22:58:00,59.0,54.0,30.00,WNW,284,0.0,0.0,82,0.00,,,0.00,weatherlink.com 1.10,2013-07-29 02:58:00,
2013-07-28 23:28:00,59.2,54.0,30.01,WNW,284,0.0,0.0,82,0.00,,,0.00,weatherlink.com 1.10,2013-07-29 03:28:00,
2013-07-28 23:43:00,59.3,54.0,30.01,WNW,284,0.0,0.0,81,0.00,,,0.00,weatherlink.com 1.10,2013-07-29 03:43:00,
2013-07-28 23:58:00,58.6,53.0,30.00,WNW,283,0.0,0.0,82,0.00,,,0.00,weatherlink.com 1.10,2013-07-29 03:58:00,